Location: Epalinges
(46.5518°N, 6.6683°E)
Time: 20:39:52
(UTC+00:00)

Cosmos 1825 - Pass Details

Date: 20 June 2021
Orbit: 500 x 507 km, 82.5° (Epoch: 23 July)

Event Time Altitude Azimuth Distance (km) Brightness Sun altitude
Exits shadow 00:12:45 38° 128° (SE) 780 2.8 -19.5°
Maximum altitude 00:13:30 44° 94° (E) 708 2.8 -19.5°
Drops below altitude 10° 00:17:07 10° 21° (NNE) 1,728 6.0 -19.4°
Sets 00:19:18 0° 15° (NNE) 2,617 7.4 -19.3°
